#timestamp,LO_Frequency,Hit,StdDev 
1641153615.9,286047000.8,N
1641153635.7,286047000.8,N
1641153655.5,286047001.1,N
1641153675.4,286046998.4,N
1641153695.2,286046998.7,N
1641153715.0,286046998.7,N
1641153716.0,286046998.7,N
1641153735.8,286046998.2,N
1641153755.6,286047001.1,N
1641153775.5,286047000.4,N
1641153795.3,286047000.2,N
1641153815.1,286046999.7,N
1641153835.9,286047001.1,N
1641153855.7,286046998.2,N
1641153875.6,286047000.5,N
1641153895.4,286046999.0,N
1641153915.2,286046998.3,N
1641153935.1,286046998.6,N
1641153936.0,286046998.6,N
1641153955.8,286047001.1,N
1641153975.6,286047001.2,N
1641153995.5,286046999.1,N
1641154015.3,286046998.6,N
1641154035.2,286046998.8,N
1641154055.9,286046998.4,N
1641154075.7,286046996.5,Y
1641154095.6,286046999.5,P
1641154115.4,286046996.9,P
1641154135.3,286046999.1,N
1641154155.1,286046998.8,N
1641154156.0,286046998.8,N
1641154175.8,286046998.4,N
1641154195.7,286046996.5,Y
1641154215.5,286046998.3,P
1641154235.3,286046998.8,P
1641154255.2,286046998.3,P
1641154275.0,286046998.8,Y
1641154275.9,286046998.8,P
1641154295.8,286047001.1,P
1641154315.6,286047001.0,N
1641154335.4,286047000.6,N
1641154355.3,286047000.5,N
1641154375.1,286047000.4,N
1641154395.9,286047000.3,N
1641154415.7,286047000.4,N
1641154435.5,286047000.4,N
1641154455.4,286047000.8,N
1641154475.2,286047000.2,N
1641154495.0,286047000.3,N
1641154495.9,286047000.3,N
1641154515.8,286046999.9,N
1641154535.6,286047000.8,N
1641154555.4,286046998.1,N
1641154575.3,286047000.6,N
1641154595.1,286046999.9,N
1641154615.9,286047002.8,Y
1641154635.7,286047002.8,P
1641154655.5,286047000.4,N
1641154675.4,286047000.7,N
1641154695.2,286047001.0,N
1641154715.0,286046998.1,N
1641154716.0,286046998.1,N
1641154735.8,286046999.9,N
1641154755.6,286046999.7,N
1641154775.5,286047002.5,N
1641154795.3,286047002.6,N
1641154815.1,286047000.7,N
1641154835.9,286047000.1,N
1641154855.7,286046999.7,N
1641154875.5,286047002.4,N
1641154895.4,286047002.8,N
1641154915.2,286047000.4,N
1641154935.1,286047001.1,N
1641154936.0,286047001.1,N
1641154955.8,286047000.5,N
1641154975.6,286047001.0,N
1641154995.5,286047001.1,N
1641155015.3,286047000.7,N
1641155035.1,286046998.2,N
1641155055.9,286047001.2,N
1641155075.7,286047001.2,N
1641155095.6,286046998.2,N
1641155115.4,286047011.9,Y
1641155135.2,286046998.6,P
1641155155.1,286046998.7,N
1641155156.0,286046998.7,N
1641155175.8,286047001.1,N
1641155195.7,286046999.1,N
1641155215.5,286046999.0,N
1641155235.3,286046997.0,Y
1641155255.2,286046999.6,P
1641155275.0,286046999.6,P
1641155275.9,286046999.6,P
1641155295.8,286046996.6,Y
1641155315.6,286046998.1,P
1641155335.4,286046998.9,N
1641155355.3,286046999.4,N
1641155375.1,286047000.8,N
1641155395.8,286046998.9,N
1641155415.7,286046997.0,Y
1641155435.5,286046998.7,P
1641155455.4,286046998.5,P
1641155475.2,286046998.2,P
1641155495.0,286046998.6,Y
1641155495.9,286046998.6,P
1641155515.8,286046999.9,P
1641155535.6,286047000.6,N
1641155555.5,286047000.3,N
1641155575.3,286047002.7,Y
1641155595.1,286047002.1,P
1641155615.9,286047002.2,N
1641155635.7,286047000.2,N
1641155655.6,286046999.7,N
1641155675.4,286047002.2,N
1641155695.2,286046999.8,N
1641155715.1,286047002.3,N
1641155716.0,286047002.3,N
1641155735.8,286047001.8,N
1641155755.7,286047002.8,N
1641155775.5,286047001.2,N
1641155795.3,286047000.6,N
1641155815.2,286046998.7,N
1641155835.0,286046998.8,N
1641155835.9,286046998.8,N
1641155855.7,286046996.6,N
1641155875.6,286046996.7,N
1641155895.4,286046999.2,N
1641155915.3,286046999.3,N
1641155935.1,286046998.4,N
1641155936.0,286046998.4,N
1641155955.8,286046998.3,N
1641155975.7,286046996.5,N
1641155995.5,286046999.2,N
1641156015.3,286046998.4,N
1641156035.2,286046998.7,N
1641156055.0,286046998.3,N
1641156055.9,286046998.3,N
1641156075.8,286046998.9,N
1641156095.6,286046998.7,N
1641156115.4,286046996.9,N
1641156135.3,286046996.8,N
1641156155.1,286046996.8,N
1641156175.8,286046997.9,N
1641156195.7,286046993.4,Y
1641156215.5,286046995.9,P
1641156235.4,286046994.2,P
1641156255.2,286046993.7,P
1641156275.0,286046991.7,Y
1641156275.9,286046991.7,P
1641156295.8,286046995.0,N
1641156315.6,286046999.4,N
1641156335.5,286046998.6,N
1641156355.3,286046999.8,N
1641156375.1,286046999.8,N
1641156395.9,286046999.7,N
1641156415.7,286047002.8,N
1641156435.5,286047000.4,N
1641156455.4,286047000.4,N
1641156475.2,286047000.5,N
1641156495.1,286047002.7,N
1641156496.0,286047002.7,N
1641156515.8,286046999.9,N
1641156535.6,286047000.0,N
1641156555.5,286047002.4,N
1641156575.3,286047002.4,N
1641156595.1,286047002.1,N
1641156615.9,286047002.8,N
1641156635.7,286047002.1,N
1641156655.6,286047002.4,N
1641156675.4,286047001.6,N
1641156695.2,286046999.7,N
1641156715.1,286046999.8,N
1641156716.0,286046999.8,N
1641156735.8,286047002.6,N
1641156755.6,286047001.5,N
1641156775.5,286047001.7,N
1641156795.3,286047003.2,N
1641156815.2,286047005.5,N
1641156835.9,286047005.6,N
1641156855.7,286047003.1,N
1641156875.6,286047002.9,N
1641156895.4,286047006.0,Y
1641156915.2,286047003.6,P
1641156935.1,286047003.2,P
1641156936.0,286047003.2,P
1641156955.8,286047003.7,Y
1641156975.7,286047000.3,P
1641156995.5,286047000.9,N
1641157015.3,286047000.9,N
1641157035.2,286047000.4,N
1641157055.0,286047000.3,N
1641157055.9,286047000.3,N
1641157075.8,286047000.2,N
1641157095.6,286046999.9,N
1641157115.4,286047000.4,N
1641157135.3,286047001.1,N
1641157155.1,286046998.7,N
1641157175.8,286046998.1,N
1641157195.7,286047001.0,N
